Lee's Summit, MO

11:45 AM CST on December 14, 2017 (GMT -0600)
Lee's Summit Municipal

Weather History for KLXT - October, 2012

Change the Weather History Date:

Monday, October 29, 2012

  Actual Average (KMKC) Record (KMKC)
Temperature  
Mean Temperature 46 °F -  
Max Temperature 54 °F 60 °F 82 °F (2016)
Min Temperature 39 °F 44 °F 34 °F (2017)
Degree Days  
Heating Degree Days 19    
Moisture  
Dew Point 28 °F    
Average Humidity 53    
Maximum Humidity 70    
Minimum Humidity 40    
Precipitation  
Precipitation 0.00 in - - ()
Sea Level Pressure  
Sea Level Pressure 30.26 in    
Wind  
Wind Speed 5 mph (SE)    
Max Wind Speed 10 mph    
Max Gust Speed 17 mph    
Visibility 10 miles    
Events      
Averages and records for this station are not official NWS values.
T = Trace of Precipitation, MM = Missing Value Source: NWS Daily Summary

Daily Weather History Graph

Daily Weather History Graph

Search for Another Location

Airport or City:

Trip Planner

Search our weather history database for the weather conditions in past years. The results will help you decide how hot, cold, wet, or windy it might be!

Date:

Astronomy

Oct. 29, 2012 Rise Set
Actual Time 7:42 AM CDT 6:19 PM CDT
Civil Twilight 7:14 AM CDT 6:47 PM CDT
Nautical Twilight 6:43 AM CDT 7:18 PM CDT
Astronomical Twilight 6:12 AM CDT 7:49 PM CDT
Moon 6:12 PM CDT (10/29) 7:32 AM CDT (10/29)
Length of Visible Light 11h 32m
Length of Day
10h 37m
Full, 100% of the Moon is Illuminated
Oct 29
Full
Oct 29
Full
Nov 6
Last Quarter
Nov 13
New
Nov 20
First Quarter

Hourly Weather History & Observations

Time (CDT) Temp. Windchill Dew Point Humidity Pressure Visibility Wind Dir Wind Speed Gust Speed Precip Events Conditions
12:53 AM 39.0 °F 35.7 °F 25.0 °F 57% 30.32 in 10.0 mi SE 4.6 mph - N/A   Overcast
1:53 AM 39.9 °F 35.8 °F 25.0 °F 55% 30.30 in 10.0 mi ESE 5.8 mph - N/A   Overcast
2:53 AM 39.9 °F 35.8 °F 25.0 °F 55% 30.31 in 10.0 mi SE 5.8 mph - N/A   Mostly Cloudy
3:53 AM 41.0 °F 39.0 °F 24.1 °F 51% 30.31 in 10.0 mi SSE 3.5 mph - N/A   Overcast
4:53 AM 41.0 °F - 24.1 °F 51% 30.31 in 10.0 mi Calm Calm - N/A   Overcast
5:53 AM 39.9 °F 36.7 °F 24.1 °F 53% 30.31 in 10.0 mi ESE 4.6 mph - N/A   Overcast
6:53 AM 39.0 °F 36.8 °F 25.0 °F 57% 30.32 in 10.0 mi South 3.5 mph - N/A   Mostly Cloudy
7:53 AM 39.9 °F 37.8 °F 25.0 °F 55% 30.32 in 10.0 mi SE 3.5 mph - N/A   Overcast
8:53 AM 41.0 °F 38.0 °F 27.0 °F 57% 30.34 in 10.0 mi SE 4.6 mph - N/A   Overcast
9:53 AM 43.0 °F 38.2 °F 28.0 °F 56% 30.34 in 10.0 mi SSE 8.1 mph - N/A   Scattered Clouds
10:53 AM 45.0 °F 40.1 °F 28.9 °F 53% 30.32 in 10.0 mi SSE 9.2 mph 17.3 mph N/A   Mostly Cloudy
11:53 AM 46.9 °F - 28.9 °F 50% 30.32 in 10.0 mi SSE 10.4 mph - N/A   Clear
12:53 PM 51.1 °F - 32.0 °F 48% 30.28 in 10.0 mi SSE 6.9 mph - N/A   Partly Cloudy
1:53 PM 52.0 °F - 30.9 °F 45% 30.26 in 10.0 mi Variable 5.8 mph - N/A   Mostly Cloudy
3:53 PM 53.1 °F - 28.9 °F 40% 30.20 in 10.0 mi SE 9.2 mph - N/A   Mostly Cloudy
4:53 PM 53.1 °F - 30.0 °F 41% 30.18 in 10.0 mi SE 8.1 mph 16.1 mph N/A   Clear
5:53 PM 52.0 °F - 28.9 °F 41% 30.17 in 10.0 mi South 5.8 mph - N/A   Clear
6:53 PM 48.9 °F - 28.9 °F 46% 30.18 in 10.0 mi ESE 4.6 mph - N/A   Clear
7:53 PM 46.0 °F 42.5 °F 28.9 °F 51% 30.18 in 10.0 mi ESE 6.9 mph - N/A   Clear
8:53 PM 44.1 °F 40.1 °F 30.0 °F 58% 30.17 in 10.0 mi ESE 6.9 mph - N/A   Clear
9:53 PM 42.1 °F 38.4 °F 30.0 °F 62% 30.17 in 10.0 mi East 5.8 mph - N/A   Clear
10:53 PM 39.0 °F 33.4 °F 30.0 °F 70% 30.17 in 10.0 mi East 8.1 mph - N/A   Clear
11:53 PM 39.9 °F 35.1 °F 30.0 °F 68% 30.15 in 10.0 mi ESE 6.9 mph - N/A   Clear